Fayetteville, NC

5:14 AM EDT on May 23, 2017 (GMT -0400)
Fayetteville Regional-Grannis

Weather History for KFAY - September, 2012

Change the Weather History Date:

Saturday, September 29, 2012

  Actual Average Record
Temperature  
Mean Temperature 70 °F 69 °F  
Max Temperature 75 °F 80 °F 95 °F (1933)
Min Temperature 64 °F 59 °F 41 °F (1942)
Degree Days  
Heating Degree Days 0 1  
Month to date heating degree days 1 7  
Since 1 July heating degree days 1 7  
Cooling Degree Days 5 5  
Month to date cooling degree days 266 264  
Year to date cooling degree days 2015 1904  
Growing Degree Days 20 (Base 50)    
Moisture  
Dew Point 65 °F    
Average Humidity 85    
Maximum Humidity 100    
Minimum Humidity 69    
Precipitation  
Precipitation 0.11 in 0.14 in 5.13 in (2016)
Month to date precipitation 1.44 4.25  
Year to date precipitation 33.17 35.68  
Sea Level Pressure  
Sea Level Pressure 29.93 in    
Wind  
Wind Speed 5 mph (ENE)    
Max Wind Speed 9 mph    
Max Gust Speed 13 mph    
Visibility 8 miles    
Events Rain    
T = Trace of Precipitation, MM = Missing Value Source: NWS Daily Summary

Daily Weather History Graph

Daily Weather History Graph

Search for Another Location

Airport or City:

Trip Planner

Search our weather history database for the weather conditions in past years. The results will help you decide how hot, cold, wet, or windy it might be!

Date:

Astronomy

Sep. 29, 2012 Rise Set
Actual Time 7:09 AM EDT 7:01 PM EDT
Civil Twilight 6:43 AM EDT 7:26 PM EDT
Nautical Twilight 6:14 AM EDT 7:56 PM EDT
Astronomical Twilight 5:44 AM EDT 8:25 PM EDT
Moon 6:35 PM EDT (9/29) 6:37 AM EDT (9/29)
Length of Visible Light 12h 42m
Length of Day
11h 52m
Full, 100% of the Moon is Illuminated
Sep 29
Full
Sep 29
Full
Oct 8
Last Quarter
Oct 15
New
Oct 21
First Quarter

Hourly Weather History & Observations

Time (EDT) Temp. Dew Point Humidity Pressure Visibility Wind Dir Wind Speed Gust Speed Precip Events Conditions
12:53 AM 68.0 °F 63.0 °F 84% 29.99 in 10.0 mi SSW 3.5 mph - N/A   Clear
1:53 AM 66.9 °F 63.0 °F 87% 29.98 in 10.0 mi Calm Calm - N/A   Clear
2:53 AM 66.0 °F 63.0 °F 90% 29.97 in 10.0 mi South 3.5 mph - N/A   Clear
3:53 AM 66.9 °F 64.0 °F 90% 29.96 in 10.0 mi SSW 4.6 mph - N/A   Clear
4:53 AM 66.9 °F 64.9 °F 93% 29.95 in 6.0 mi SW 5.8 mph - N/A   Clear
5:53 AM 69.1 °F 66.9 °F 93% 29.96 in 6.0 mi West 6.9 mph - N/A   Partly Cloudy
6:53 AM 66.9 °F 64.9 °F 93% 29.95 in 6.0 mi Calm Calm - N/A   Clear
7:48 AM 66.2 °F 64.4 °F 94% 29.97 in 2.0 mi NE 3.5 mph - N/A   Clear
7:53 AM 66.9 °F 64.9 °F 93% 29.96 in 2.5 mi NE 3.5 mph - N/A   Clear
8:31 AM 66.2 °F 66.2 °F 100% 29.99 in 3.0 mi NNE 3.5 mph - N/A   Partly Cloudy
8:53 AM 68.0 °F 66.0 °F 93% 29.98 in 5.0 mi Calm Calm - N/A   Partly Cloudy
9:53 AM 70.0 °F 64.9 °F 84% 29.97 in 8.0 mi Calm Calm - N/A   Partly Cloudy
10:42 AM 71.6 °F 66.2 °F 83% 30.00 in 9.0 mi Calm Calm - N/A   Mostly Cloudy
10:53 AM 72.0 °F 66.0 °F 81% 29.98 in 9.0 mi Calm Calm - N/A   Overcast
11:06 AM 71.6 °F 66.2 °F 83% 29.99 in 8.0 mi NNE 5.8 mph - N/A   Overcast
11:42 AM 73.4 °F 66.2 °F 78% 29.98 in 9.0 mi NNE 5.8 mph - N/A   Scattered Clouds
11:53 AM 73.0 °F 66.0 °F 79% 29.96 in 9.0 mi North 4.6 mph - N/A   Partly Cloudy
12:53 PM 73.9 °F 66.0 °F 76% 29.94 in 8.0 mi ESE 5.8 mph - N/A   Mostly Cloudy
1:53 PM 73.9 °F 66.9 °F 79% 29.92 in 7.0 mi East 3.5 mph - N/A   Mostly Cloudy
2:07 PM 73.4 °F 66.2 °F 78% 29.93 in 7.0 mi SE 3.5 mph - N/A   Mostly Cloudy
2:26 PM 73.4 °F 66.2 °F 78% 29.92 in 7.0 mi ESE 4.6 mph - N/A   Scattered Clouds
2:53 PM 73.9 °F 68.0 °F 82% 29.90 in 6.0 mi SSE 5.8 mph - N/A   Haze
3:12 PM 73.4 °F 66.2 °F 78% 29.91 in 6.0 mi SSE 5.8 mph - N/A   Haze
3:27 PM 73.4 °F 66.2 °F 78% 29.90 in 6.0 mi SE 5.8 mph - N/A   Haze
3:53 PM 75.0 °F 64.9 °F 71% 29.87 in 9.0 mi ESE 6.9 mph - N/A   Partly Cloudy
4:53 PM 73.9 °F 64.9 °F 73% 29.86 in 10.0 mi East 6.9 mph - N/A   Clear
5:53 PM 73.0 °F 66.0 °F 79% 29.86 in 9.0 mi East 5.8 mph - N/A   Clear
6:19 PM 71.6 °F 66.2 °F 83% 29.88 in 8.0 mi Calm Calm - N/A   Mostly Cloudy
6:53 PM 72.0 °F 66.9 °F 84% 29.86 in 8.0 mi ESE 3.5 mph - N/A   Overcast
7:53 PM 70.0 °F 66.9 °F 90% 29.88 in 6.0 mi North 3.5 mph - 0.00 in Rain Light Rain
8:04 PM 69.8 °F 68.0 °F 94% 29.89 in 2.0 mi Calm Calm - 0.07 in Rain Light Rain
8:12 PM 69.8 °F 68.0 °F 94% 29.89 in 4.0 mi Calm Calm - 0.08 in Rain Light Rain
8:53 PM 68.0 °F 66.0 °F 93% 29.88 in 9.0 mi NNE 6.9 mph - 0.11 in   Mostly Cloudy
9:04 PM 68.0 °F 66.2 °F 94% 29.90 in 9.0 mi NNE 5.8 mph - N/A   Overcast
9:38 PM 66.2 °F 64.4 °F 94% 29.91 in 10.0 mi NNE 8.1 mph - N/A   Mostly Cloudy
9:53 PM 66.0 °F 64.0 °F 93% 29.89 in 10.0 mi NNE 8.1 mph - N/A   Overcast
10:43 PM 64.4 °F 64.4 °F 100% 29.91 in 10.0 mi North 4.6 mph - N/A   Overcast
10:51 PM 64.4 °F 64.4 °F 100% 29.91 in 10.0 mi NE 8.1 mph - N/A   Overcast
10:53 PM 64.9 °F 64.0 °F 97% 29.89 in 10.0 mi NNE 6.9 mph - N/A   Overcast
11:46 PM 64.4 °F 62.6 °F 94% 29.90 in 10.0 mi NNE 4.6 mph - N/A   Overcast
11:53 PM 64.9 °F 63.0 °F 93% 29.89 in 10.0 mi NNE 8.1 mph - N/A   Overcast